GFSFLT1_850_thetae_021.txt.gz
Theta_e
337 340 340 338 337 336 334 332 330 326 323 324 326 325 325 326 327 325 325 323 322 321 322 322 322 321 322 322 319 317 316 314
335 340 339 337 336 335 334 330 325 324 327 324 326 325 325 326 326 325 323 322 320 319 322 322 323 323 322 321 319 317 316 315
339 339 337 335 334 333 333 330 329 324 327 326 327 326 325 325 325 324 323 321 319 320 322 323 325 324 324 323 320 318 318 317
334 334 334 332 332 330 330 328 328 324 325 326 327 326 325 325 325 324 322 319 318 320 322 324 325 325 325 323 321 319 320 319
332 331 331 331 329 330 329 329 328 325 327 326 326 325 325 325 325 324 322 319 318 319 322 324 325 326 326 324 321 320 320 320
331 328 328 329 328 327 329 329 329 324 329 330 329 327 326 325 325 324 322 320 319 319 322 324 326 327 327 323 321 321 321 320
327 327 327 327 329 327 327 329 328 327 328 328 328 328 328 325 325 325 323 320 321 321 321 322 326 328 326 322 321 321 321 319
327 326 327 327 327 328 328 329 329 329 329 328 329 328 328 326 325 325 324 321 322 321 323 324 326 328 324 322 322 321 319 317
327 326 326 327 327 327 328 329 328 328 328 329 329 329 328 326 326 326 325 322 322 322 323 325 326 326 323 322 322 321 316 319
328 327 327 327 327 328 328 328 328 328 328 328 329 329 328 326 326 326 326 324 322 323 322 324 328 324 322 322 321 317 318 324
328 328 328 327 328 328 327 326 326 327 328 328 328 328 329 328 326 325 326 325 323 323 323 323 325 323 322 322 320 316 321 326
326 326 327 327 326 326 326 325 326 326 325 325 326 326 327 326 326 326 326 325 324 323 323 324 324 323 322 321 316 318 325 327
324 325 326 323 322 323 322 323 323 323 324 325 324 325 325 325 326 326 326 325 324 323 323 324 323 323 322 320 316 323 325 327
320 320 320 320 322 322 321 322 323 323 323 323 322 323 324 325 325 324 325 325 324 324 324 324 323 322 322 316 321 325 325 325
319 319 320 321 322 321 321 321 321 322 322 323 323 324 325 325 324 325 325 324 323 323 323 323 322 322 320 317 323 326 327 327
319 319 319 320 321 321 319 321 322 322 322 323 323 322 323 323 324 325 324 323 323 323 322 322 322 322 316 319 324 326 326 327
320 318 318 319 320 321 321 321 322 322 322 322 322 323 323 325 325 324 323 323 322 322 322 322 323 320 317 321 325 325 325 327
319 318 318 320 321 321 322 322 321 321 323 323 324 323 324 325 324 322 321 322 322 322 322 323 321 317 319 324 323 326 325 326
317 318 319 320 321 321 322 322 321 321 323 323 324 323 324 325 323 321 321 322 322 323 323 322 317 320 323 323 325 325 325 327
316 317 319 320 323 323 322 322 322 322 324 324 323 322 323 324 323 322 321 322 323 324 322 319 320 322 323 324 325 324 324 325

GFSFLT1_850_thetae_024.txt.gz
Theta_e
334 340 340 339 339 338 336 333 332 332 329 329 331 329 329 332 327 325 324 323 321 319 321 321 320 320 320 320 320 318 317 315
335 339 340 340 338 336 335 332 330 330 331 329 329 329 330 331 326 325 324 323 320 319 320 321 321 321 321 321 320 319 318 317
333 334 336 339 338 337 335 333 332 329 332 331 330 327 327 331 328 327 331 324 320 319 320 321 321 321 322 321 321 320 319 319
331 332 334 335 335 335 334 333 331 329 329 330 328 329 329 330 333 333 333 325 324 318 320 321 322 323 324 323 323 321 320 320
330 332 332 332 332 332 333 333 332 331 331 331 331 330 328 331 332 334 334 327 321 319 320 322 323 324 324 324 324 323 321 320
331 332 330 330 330 331 332 333 330 329 332 332 332 329 330 332 332 334 334 334 323 319 320 322 324 324 323 325 325 324 322 321
332 331 331 330 331 330 330 331 331 330 330 330 330 330 331 332 333 332 332 334 334 334 337 326 328 329 324 326 326 326 323 323
331 331 331 330 330 330 330 330 330 330 330 330 330 331 331 332 331 332 332 333 335 334 337 338 336 337 330 329 330 332 335 336
331 330 330 330 330 329 330 331 330 330 330 330 330 330 331 332 332 330 331 332 334 332 326 333 337 337 339 339 337 336 336 334
330 330 330 330 330 330 330 330 329 329 329 328 328 329 329 329 331 331 330 331 334 336 325 324 336 337 337 337 335 333 332 323
328 329 329 329 330 330 330 328 328 328 327 328 328 327 327 328 329 332 330 330 334 337 330 323 324 337 336 334 331 329 329 325
326 327 328 329 329 328 328 327 327 327 325 325 326 325 326 327 328 331 328 330 333 336 332 324 323 327 326 325 327 322 327 329
326 326 327 326 328 328 326 326 325 325 324 325 325 325 325 325 328 330 332 329 330 330 331 325 324 323 326 324 323 328 328 325
328 327 327 327 329 327 325 324 325 324 324 324 325 325 325 327 328 329 331 328 327 328 332 326 325 323 325 325 323 328 328 330
327 327 326 326 327 327 325 324 324 324 324 325 325 324 325 327 329 330 330 327 325 325 334 326 324 324 324 322 324 329 327 331
327 328 324 324 325 326 326 324 323 324 325 325 325 324 326 328 328 326 324 324 323 327 330 326 327 325 325 328 328 329 331 332
326 326 326 325 325 327 326 324 324 325 326 326 325 325 328 328 324 324 324 323 324 329 331 329 329 326 329 329 328 330 331 332
324 324 325 325 325 326 326 326 325 325 325 325 325 327 328 330 326 324 323 324 328 331 327 326 327 329 329 328 329 331 331 333
322 324 324 324 324 325 325 325 325 325 325 325 324 327 329 331 330 329 328 327 329 331 323 324 330 329 323 328 328 330 332 333
321 322 324 323 327 325 326 328 327 326 325 325 324 328 329 331 331 331 331 329 328 324 322 323 323 328 330 329 329 331 331 331

GFSFLT1_850_thetae_030.txt.gz
Theta_e
331 335 336 334 337 338 339 337 335 334 334 332 333 333 336 338 336 334 331 324 321 320 320 320 319 318 318 319 319 318 318 317
333 336 336 336 339 340 339 338 335 333 333 333 332 332 333 336 336 335 335 328 321 320 320 320 320 319 319 319 319 319 319 319
331 331 332 333 335 338 338 337 335 334 332 333 332 332 332 336 335 335 335 336 327 319 320 321 321 320 319 319 319 320 320 320
334 333 333 332 333 334 336 336 336 334 333 333 332 333 332 334 336 335 335 334 335 325 320 320 321 321 320 320 320 320 321 321
332 333 333 332 333 334 333 334 334 333 333 332 335 334 333 334 334 335 335 335 335 335 327 322 321 321 321 320 321 321 322 322
332 334 333 332 331 332 332 332 334 333 334 333 334 333 333 332 332 335 336 335 336 335 336 330 322 321 321 321 321 322 323 324
331 332 332 332 332 332 331 332 332 333 333 332 331 331 332 332 331 331 332 336 336 336 336 337 325 322 322 322 322 322 323 324
330 331 332 332 332 333 333 332 332 332 331 331 331 332 332 332 332 331 330 331 336 337 337 336 338 326 323 323 323 323 323 323
330 332 332 333 333 333 333 333 332 332 332 332 331 331 331 331 331 331 330 329 332 336 336 337 337 340 337 332 326 324 323 323
331 332 332 333 332 332 332 333 333 333 332 332 332 331 331 330 330 330 329 329 329 335 335 336 337 341 339 339 338 331 325 325
330 331 332 331 331 331 331 331 331 331 332 332 332 331 330 330 329 328 328 329 329 332 335 335 336 339 341 341 342 339 339 339
328 328 329 330 330 329 330 331 331 331 331 331 332 330 330 330 328 328 329 329 328 329 337 335 334 337 340 340 342 341 341 339
330 329 330 329 331 331 329 328 329 329 330 330 330 330 329 329 328 328 329 328 327 330 335 337 335 337 337 340 339 340 339 337
329 329 330 330 332 332 329 329 329 330 330 330 330 329 328 328 327 329 328 327 328 331 335 337 337 338 337 343 340 339 337 334
329 329 329 331 331 331 329 329 330 330 330 330 330 329 328 327 327 329 328 328 330 333 335 337 339 341 340 343 341 339 333 332
329 329 329 330 331 331 331 330 331 331 330 329 328 329 328 327 327 329 331 330 333 334 337 339 341 342 343 342 340 334 332 332
328 328 329 330 330 330 331 330 331 330 330 329 330 330 329 327 327 330 331 330 331 336 338 340 342 343 344 341 336 333 332 333
327 327 328 329 330 330 331 331 330 330 330 330 329 328 329 328 328 334 332 331 332 338 339 339 342 343 340 336 334 333 332 333
324 325 326 327 329 330 330 330 329 328 328 328 328 327 327 327 331 334 333 332 334 337 340 341 342 338 336 333 334 333 334 334
322 323 326 325 329 331 330 331 330 329 328 328 328 328 327 329 335 335 335 335 338 339 339 339 337 336 334 333 333 334 331 333

GFSFLT1_850_thetae_033.txt.gz
Theta_e
326 330 331 329 335 337 338 337 336 334 334 333 334 337 337 336 334 333 329 324 322 321 321 320 320 319 319 318 318 318 318 319
328 332 332 333 334 337 337 338 336 335 332 332 333 336 337 336 334 333 332 327 321 321 321 320 320 319 319 319 319 319 320 320
328 329 332 331 333 337 337 338 336 335 333 332 332 333 334 336 335 335 333 334 324 320 320 321 320 319 319 319 319 320 320 321
328 330 331 331 331 337 336 336 337 335 334 332 332 332 332 334 335 335 335 333 334 328 320 320 321 321 319 319 319 320 321 321
326 328 330 331 332 329 330 331 333 334 332 333 333 332 332 333 332 335 335 335 334 334 333 321 320 320 320 320 320 320 320 321
325 328 329 330 331 331 331 332 333 333 333 333 334 333 332 332 332 333 335 335 334 334 334 332 321 320 320 321 320 320 320 321
324 326 328 330 329 332 332 332 332 333 332 332 332 333 332 332 332 333 334 336 335 335 334 334 334 325 320 321 321 320 320 321
324 325 327 329 330 332 333 332 332 332 332 332 332 331 331 332 332 332 331 333 335 335 335 335 335 335 327 320 321 321 321 321
325 326 327 329 331 332 332 331 332 332 332 332 333 332 331 331 331 331 330 331 333 335 335 336 336 336 333 322 320 321 322 322
328 327 327 328 330 331 331 330 331 330 331 332 332 332 332 331 331 331 330 330 329 333 335 336 337 336 335 336 332 322 322 322
328 329 329 329 330 330 331 331 330 329 329 331 331 331 331 331 330 329 330 329 329 328 333 335 337 337 336 336 336 336 335 335
327 326 327 327 328 328 329 328 329 329 329 329 330 330 331 332 330 329 329 329 328 328 328 328 332 337 336 336 336 338 339 337
324 326 326 326 327 327 328 329 329 329 329 328 328 328 329 330 330 329 329 328 328 328 327 328 332 338 337 338 338 339 340 340
322 323 325 326 328 327 328 329 329 329 329 329 328 329 330 330 330 329 329 327 327 328 327 329 334 337 340 341 341 341 342 341
323 323 324 325 327 327 328 328 328 329 329 328 329 329 329 329 329 328 327 327 329 329 328 329 334 337 339 341 341 341 342 340
322 323 324 325 325 326 326 327 328 328 329 329 329 330 329 328 327 328 327 328 330 329 330 332 335 338 340 339 341 342 339 336
322 323 324 324 325 326 327 327 326 327 329 329 329 329 328 327 329 328 327 328 331 331 333 334 338 340 341 341 342 342 340 332
320 323 323 324 325 326 326 326 326 326 327 328 329 330 328 328 328 328 327 330 332 331 334 336 340 343 342 341 342 340 338 332
317 319 320 320 321 322 323 324 326 327 328 328 328 327 328 327 327 329 330 331 332 333 338 341 343 342 342 342 339 334 333 332
318 318 319 320 321 321 322 323 324 326 327 328 328 327 326 327 327 331 333 333 332 333 339 340 342 340 338 335 335 334 333 333